Wind_Speed
40 40 41 40 40 40 41 41 41 42 42 42 42 42 43 43 43 44 45 47 49 50 51 53 54 55 57 59 60 58 54 52 53 52 51 49 47 46 46 43 42 41 38
38 39 39 40 40 40 40 41 42 43 43 44 44 43 43 43 43 45 46 47 48 49 50 51 53 54 53 54 55 57 56 56 57 58 57 54 50 50 48 45 42 41 37
37 37 39 41 42 43 43 43 44 45 45 46 46 45 44 44 45 46 47 47 49 50 51 51 51 51 51 50 51 54 54 56 57 57 56 55 52 50 49 46 41 39 35
35 36 37 38 39 40 41 42 43 43 43 45 45 45 44 45 46 47 48 49 51 52 53 52 51 50 49 49 50 51 52 51 50 48 48 48 46 46 46 43 40 37 34
33 34 35 36 37 37 38 38 38 38 39 40 41 42 43 44 45 47 48 49 49 50 52 53 52 51 50 49 48 48 48 47 42 40 41 43 44 44 43 41 38 37 37
33 33 34 34 35 36 36 37 38 38 38 39 40 42 43 44 45 46 47 48 49 49 50 53 54 54 53 51 49 48 46 43 39 36 38 41 44 44 43 41 38 39 41
37 37 37 37 36 37 37 38 39 40 41 42 45 46 47 47 47 48 49 50 50 50 50 51 53 54 54 52 49 47 45 42 38 36 37 40 42 45 45 44 44 44 41
42 42 41 40 40 40 39 39 40 41 43 45 46 48 50 49 49 50 51 50 50 49 49 48 49 48 49 49 48 45 43 41 39 40 40 42 46 48 48 47 45 39 35
42 44 44 44 44 43 42 42 42 43 44 45 46 47 48 48 48 49 49 50 50 49 48 46 45 43 42 41 40 38 36 35 37 40 42 45 48 49 46 42 37 33 32
40 41 43 43 44 44 44 44 44 44 44 44 44 45 45 46 46 46 48 49 48 45 42 39 37 35 33 32 30 29 29 31 33 34 36 40 41 39 36 32 31 31 31
36 39 41 42 43 43 43 43 43 42 43 43 42 42 43 43 43 44 44 43 39 37 34 32 30 28 27 27 28 27 27 27 26 26 26 27 27 27 27 28 29 31 31
36 38 40 41 42 42 42 41 40 39 40 40 40 39 39 39 39 39 36 33 31 29 26 26 26 26 26 26 26 24 22 22 22 21 20 21 22 24 25 27 28 30 31
39 40 40 41 42 42 41 41 38 37 37 36 36 35 35 34 33 31 28 26 24 22 22 23 24 25 24 22 21 21 21 21 22 23 23 24 25 26 27 28 28 29 30
38 40 42 42 41 40 40 39 37 36 34 32 31 31 30 29 26 23 21 20 20 18 20 21 22 22 22 21 21 21 22 22 22 22 22 24 25 25 26 26 27 27 28
39 40 42 42 41 40 39 37 34 32 31 28 27 26 25 23 19 18 17 15 14 15 18 21 22 20 20 21 23 24 23 22 22 21 21 21 22 22 23 23 24 25 27
41 41 42 42 41 40 39 36 32 30 29 26 24 23 22 18 16 15 14 13 11 10 12 16 18 18 19 21 22 22 22 22 21 20 20 19 19 19 20 21 23 25 27
42 42 42 42 41 41 40 36 33 31 29 27 24 22 20 17 15 15 14 13 10 9 7 8 11 13 15 17 18 19 19 18 18 17 17 17 17 18 20 21 23 25 27
44 43 42 42 42 41 40 37 33 32 30 28 26 23 19 16 14 14 14 13 10 9 9 9 10 12 14 16 17 17 17 16 16 16 16 16 17 17 19 20 22 24 25
48 47 44 41 41 41 41 38 33 32 30 28 26 22 18 15 14 14 13 12 13 12 13 12 12 12 14 14 15 16 15 14 14 14 14 14 15 16 17 18 18 18 19
48 49 46 42 40 39 39 38 33 31 30 28 24 21 17 15 13 13 13 13 14 16 17 17 16 15 14 14 14 14 14 14 13 12 13 14 15 14 13 12 14 16 19
48 48 47 44 39 38 37 36 33 31 30 27 22 19 17 16 14 13 13 13 14 15 16 17 16 14 13 14 14 14 14 12 11 12 13 11 8 9 10 13 16 19 22
47 45 45 43 39 37 36 34 33 32 30 27 23 20 18 17 16 15 13 12 12 11 11 11 10 10 9 10 10 10 10 10 10 11 10 8 8 10 12 14 17 20 23
50 44 43 43 39 37 37 35 33 33 32 30 27 24 21 19 17 15 13 12 10 9 9 8 7 7 6 6 6 7 8 9 9 9 9 9 11 11 13 16 19 22 25
57 48 44 44 41 38 39 34 32 32 33 33 32 29 25 22 19 16 14 12 10 10 9 8 7 6 6 6 6 6 7 8 8 9 10 11 11 11 13 16 20 23 26
58 53 48 46 44 42 40 34 32 32 33 34 35 32 29 25 21 17 15 14 12 11 10 9 8 7 7 7 8 8 9 10 10 10 11 11 11 12 13 16 18 21 24
63 55 50 48 47 44 41 37 35 34 34 35 37 35 31 28 24 20 17 15 14 13 12 10 9 8 9 9 10 10 11 12 12 12 12 11 11 12 14 15 16 20 25
Wind_Direction
287 286 286 286 285 285 284 284 284 284 284 284 284 283 282 282 281 282 281 281 280 279 278 279 280 280 276 275 275 277 280 280 280 281 280 276 273 271 265 263 266 271 274
288 289 290 290 290 289 289 289 288 287 287 286 286 284 283 282 281 280 279 279 278 277 278 279 281 282 278 275 276 277 278 278 279 280 280 278 275 270 266 263 263 268 271
289 287 287 288 288 287 287 286 286 286 287 286 286 285 284 282 281 280 279 278 278 278 278 278 279 281 279 277 276 277 277 278 279 279 278 277 274 267 263 261 261 263 265
295 293 291 291 290 288 286 285 285 285 285 285 285 284 283 282 280 280 279 278 277 277 277 277 278 278 278 277 276 275 275 278 280 278 274 272 270 264 256 258 261 260 263
295 293 292 292 291 290 288 287 286 285 283 282 282 281 281 281 281 280 278 278 277 276 276 276 276 275 275 275 274 274 274 275 276 272 265 263 262 259 254 253 257 259 266
297 293 291 289 287 286 286 287 287 286 285 284 283 282 282 281 281 281 280 279 278 276 276 274 273 272 272 273 272 272 272 270 267 264 260 256 254 254 254 252 250 257 269
299 297 295 293 289 287 286 286 287 287 288 288 288 287 286 285 283 283 282 281 281 280 278 275 272 270 269 269 269 269 269 266 262 258 256 253 252 252 254 254 252 258 267
295 295 295 293 292 290 289 288 287 288 289 290 290 290 288 286 284 283 283 284 284 283 280 274 270 268 267 265 264 265 265 263 257 255 254 252 252 252 255 254 255 258 262
296 296 295 293 291 288 286 285 285 286 287 288 289 288 287 285 284 284 285 287 287 284 279 271 268 265 262 260 260 261 259 256 253 251 250 250 251 252 252 251 253 256 260
306 303 300 298 295 289 285 283 283 285 287 289 289 288 287 287 287 288 290 291 288 282 275 269 264 259 255 253 253 250 248 247 246 244 244 246 248 249 247 246 250 256 261
304 303 302 300 298 294 288 283 282 284 287 289 288 288 288 289 291 294 295 290 284 278 271 262 255 246 243 243 241 238 238 241 243 246 248 251 253 252 250 250 255 260 264
303 303 305 305 301 295 289 285 282 284 287 288 289 289 290 293 297 298 294 288 277 271 263 253 241 235 236 237 238 239 243 248 252 256 260 263 268 269 266 264 264 266 268
308 308 310 311 308 300 291 285 283 285 288 289 291 294 298 302 302 300 289 281 278 264 256 244 233 230 232 234 237 241 246 252 256 258 258 260 263 265 267 267 267 270 273
309 310 310 311 312 308 299 290 286 287 288 290 294 300 306 309 305 298 293 283 277 264 250 240 236 234 234 234 239 245 250 255 258 258 257 256 257 261 264 267 271 274 276
310 312 312 312 315 315 307 296 290 288 287 290 297 303 307 309 305 300 297 292 283 267 249 240 236 240 242 242 244 247 251 253 254 253 253 255 258 262 266 271 275 276 276
307 309 311 312 314 316 313 300 290 287 286 288 294 299 303 304 298 296 300 298 298 282 256 241 238 240 242 241 238 240 244 247 249 251 254 258 263 267 271 274 275 277 279
302 304 307 310 312 313 315 306 290 285 285 285 288 292 296 296 292 291 293 297 298 292 275 254 245 241 239 237 235 236 241 246 250 253 256 258 261 266 270 273 277 281 283
302 302 303 305 307 310 311 309 292 283 282 282 283 284 288 288 287 287 286 280 275 276 278 269 258 250 243 241 239 238 239 241 244 246 250 256 261 265 270 276 281 284 285
296 298 299 299 300 304 307 308 296 281 279 280 280 278 281 281 281 278 274 268 266 268 271 268 263 256 250 243 239 237 236 239 246 255 262 266 270 274 281 286 289 292 294
290 293 295 294 293 295 299 304 297 279 276 278 276 274 278 280 279 274 268 264 265 266 269 269 267 265 263 256 247 241 244 251 256 262 270 277 282 287 291 294 300 304 307
288 288 289 288 287 288 291 296 293 278 272 273 269 266 276 283 285 279 269 266 266 263 262 265 269 269 266 261 256 253 256 262 263 269 279 285 289 296 301 304 306 309 313
285 284 283 284 281 280 284 288 287 278 268 263 259 258 270 282 287 279 267 261 258 251 242 246 251 255 259 261 256 252 255 261 265 270 272 278 292 298 300 304 309 315 318
283 278 276 277 274 272 274 278 280 275 265 254 253 255 262 273 278 271 257 247 240 225 208 209 216 228 244 251 250 251 255 257 255 258 266 281 291 295 300 309 317 322 325
280 275 270 268 264 260 264 267 270 270 263 251 248 252 256 262 267 264 248 235 224 209 203 208 216 229 239 243 242 242 243 248 257 269 281 290 293 294 304 315 321 325 328
276 274 270 266 258 253 258 263 266 264 261 250 244 247 250 254 256 253 239 228 221 211 213 223 233 242 246 246 244 247 251 254 260 270 282 286 286 292 302 311 317 324 330
274 273 269 267 263 253 253 257 260 260 257 250 241 240 243 246 248 245 237 228 225 221 222 227 231 241 254 265 268 264 258 257 260 270 278 280 280 284 295 306 318 328 335
Height
5871 5870 5868 5867 5866 5865 5863 5862 5861 5859 5858 5856 5855 5854 5853 5852 5851 5849 5848 5847 5845 5844 5843 5842 5841 5840 5839 5839 5839 5839 5839 5839 5839 5837 5838 5840 5843 5844 5845 5848 5849 5848 5848
5864 5862 5860 5858 5856 5855 5854 5853 5851 5849 5848 5846 5845 5843 5842 5841 5839 5838 5837 5836 5834 5833 5831 5830 5829 5827 5826 5827 5827 5827 5826 5826 5825 5824 5824 5825 5830 5832 5833 5837 5840 5840 5840
5856 5855 5852 5850 5847 5846 5844 5843 5841 5839 5837 5835 5833 5832 5830 5829 5828 5826 5825 5824 5823 5821 5820 5819 5818 5816 5815 5815 5816 5816 5814 5814 5813 5811 5810 5811 5815 5818 5822 5825 5829 5831 5832
5847 5845 5843 5840 5838 5836 5834 5832 5831 5830 5827 5825 5823 5821 5820 5819 5817 5815 5814 5813 5812 5810 5809 5808 5807 5806 5804 5804 5804 5804 5804 5803 5801 5799 5798 5800 5802 5806 5811 5815 5818 5821 5823
5842 5839 5836 5833 5830 5827 5824 5823 5822 5821 5819 5817 5814 5813 5811 5809 5807 5805 5803 5801 5800 5798 5797 5796 5796 5795 5794 5793 5792 5792 5793 5792 5791 5790 5790 5791 5794 5797 5802 5807 5809 5811 5813
5836 5832 5830 5827 5823 5820 5818 5816 5814 5812 5810 5808 5806 5803 5801 5799 5796 5793 5791 5789 5787 5786 5785 5783 5783 5782 5782 5782 5782 5782 5782 5782 5782 5782 5782 5783 5786 5789 5792 5797 5800 5802 5802
5829 5825 5822 5819 5816 5813 5811 5808 5806 5803 5800 5798 5795 5793 5790 5787 5785 5782 5779 5776 5774 5772 5771 5769 5769 5769 5770 5770 5771 5771 5771 5772 5773 5774 5774 5776 5777 5780 5783 5787 5791 5794 5794
5821 5817 5814 5811 5807 5804 5802 5800 5797 5795 5792 5789 5785 5782 5778 5776 5773 5770 5767 5764 5761 5758 5756 5755 5754 5755 5757 5758 5759 5760 5761 5762 5763 5765 5766 5767 5768 5771 5774 5777 5781 5785 5786
5813 5809 5804 5801 5798 5795 5792 5790 5787 5785 5782 5779 5775 5771 5767 5764 5761 5758 5754 5750 5746 5743 5742 5742 5742 5743 5745 5746 5748 5750 5751 5752 5754 5756 5757 5758 5759 5762 5764 5768 5772 5776 5777
5805 5799 5794 5790 5786 5783 5781 5779 5777 5774 5772 5768 5764 5760 5757 5753 5749 5745 5741 5735 5732 5729 5728 5729 5731 5732 5734 5737 5740 5742 5743 5745 5746 5747 5748 5749 5751 5753 5756 5760 5763 5766 5768
5797 5792 5786 5781 5777 5772 5769 5767 5766 5764 5761 5757 5754 5750 5746 5743 5738 5733 5727 5722 5719 5717 5718 5719 5721 5724 5727 5730 5733 5736 5737 5738 5739 5739 5741 5743 5745 5748 5751 5753 5756 5759 5760
5789 5783 5778 5772 5767 5763 5759 5757 5756 5754 5751 5747 5744 5740 5737 5733 5728 5722 5716 5712 5710 5709 5709 5711 5714 5717 5720 5724 5727 5729 5730 5732 5733 5734 5736 5739 5742 5744 5746 5748 5751 5752 5753
5783 5777 5771 5765 5759 5754 5750 5747 5746 5744 5741 5738 5735 5731 5727 5723 5718 5713 5708 5705 5703 5702 5704 5705 5708 5712 5715 5718 5721 5723 5725 5727 5728 5729 5732 5735 5737 5739 5741 5743 5745 5746 5746
5777 5772 5766 5760 5753 5747 5741 5738 5737 5735 5733 5730 5727 5724 5720 5715 5710 5706 5703 5700 5698 5697 5699 5701 5704 5707 5710 5713 5716 5719 5720 5722 5723 5724 5726 5728 5731 5733 5735 5736 5737 5738 5739
5770 5765 5759 5753 5747 5741 5735 5731 5729 5728 5726 5724 5721 5717 5714 5710 5706 5702 5699 5696 5694 5694 5695 5697 5700 5702 5705 5708 5711 5714 5715 5717 5718 5720 5721 5723 5725 5726 5727 5729 5730 5731 5731
5763 5757 5751 5746 5740 5735 5729 5724 5722 5721 5719 5718 5715 5713 5710 5706 5703 5700 5697 5694 5693 5691 5692 5693 5695 5698 5700 5703 5706 5708 5710 5712 5714 5716 5717 5718 5719 5720 5721 5722 5723 5723 5723
5754 5749 5743 5738 5733 5728 5723 5718 5715 5714 5713 5711 5710 5708 5706 5703 5700 5697 5695 5693 5692 5691 5690 5691 5692 5694 5696 5699 5701 5703 5706 5708 5710 5711 5712 5713 5713 5714 5716 5716 5716 5715 5715
5743 5738 5733 5729 5725 5720 5716 5712 5708 5706 5706 5705 5705 5703 5701 5699 5696 5694 5692 5691 5690 5690 5690 5690 5691 5692 5694 5696 5698 5699 5701 5703 5705 5706 5707 5708 5708 5709 5710 5710 5710 5710 5709
5731 5727 5723 5719 5715 5712 5708 5704 5700 5699 5698 5698 5699 5698 5696 5694 5692 5691 5690 5689 5689 5688 5688 5689 5689 5690 5691 5692 5694 5696 5697 5699 5701 5702 5703 5703 5704 5705 5705 5705 5705 5704 5703
5719 5715 5712 5709 5706 5703 5700 5696 5693 5691 5691 5691 5692 5692 5690 5689 5688 5687 5686 5685 5685 5685 5685 5685 5685 5686 5687 5688 5690 5692 5694 5695 5697 5698 5698 5699 5699 5700 5700 5700 5700 5699 5697
5705 5702 5699 5697 5696 5693 5691 5688 5685 5684 5684 5685 5686 5686 5685 5683 5682 5682 5681 5681 5681 5681 5680 5680 5680 5681 5683 5685 5687 5689 5691 5692 5694 5694 5694 5695 5695 5696 5696 5696 5695 5694 5691
5689 5687 5685 5684 5684 5683 5681 5679 5677 5676 5676 5678 5679 5680 5680 5679 5678 5676 5676 5676 5677 5677 5677 5677 5678 5679 5681 5682 5684 5686 5687 5689 5690 5691 5691 5692 5693 5693 5693 5692 5690 5688 5685
5672 5670 5669 5670 5671 5670 5667 5667 5667 5667 5668 5670 5671 5673 5674 5674 5673 5672 5671 5672 5673 5673 5674 5675 5676 5678 5679 5680 5681 5682 5684 5685 5687 5688 5688 5689 5689 5689 5688 5687 5684 5682 5679
5653 5653 5653 5654 5656 5655 5650 5650 5654 5656 5657 5660 5663 5665 5666 5668 5668 5667 5667 5667 5668 5669 5670 5672 5674 5675 5676 5677 5678 5679 5680 5682 5683 5684 5684 5684 5684 5684 5683 5682 5680 5677 5674
5632 5633 5635 5637 5640 5639 5635 5635 5640 5644 5646 5649 5653 5656 5658 5660 5661 5662 5662 5663 5664 5666 5668 5669 5671 5672 5673 5674 5675 5676 5677 5678 5679 5679 5680 5680 5680 5680 5680 5679 5677 5674 5670
5608 5610 5613 5617 5622 5625 5624 5624 5627 5631 5634 5637 5642 5646 5650 5652 5654 5656 5658 5659 5661 5662 5664 5666 5668 5669 5670 5671 5672 5672 5673 5674 5675 5675 5676 5676 5677 5677 5676 5675 5673 5670 5666